This is the latest recevied weather packets stored in our database for station/object OM8AGG-15. If no packets are shown the sender has not sent any weather packets the latest 10 day(s).
| Time | Temp. | Humidity | Pressure | Rain* | Wind** | Luminosity | Snow |
|---|---|---|---|---|---|---|---|
| 1787755721 | 23.33° C | 80% | 1018.4 hPa | - | - | - | - |
| 1787754821 | 22.22° C | 80% | 1018.4 hPa | - | - | - | - |
| 1787753921 | 21.67° C | 80% | 1018.5 hPa | - | - | - | - |
| 1787753021 | 22.22° C | 80% | 1018.6 hPa | - | - | - | - |
| 1787752121 | 21.67° C | 80% | 1018.7 hPa | - | - | - | - |
| 1787751221 | 21.67° C | 80% | 1018.5 hPa | - | - | - | - |
| 1787750324 | 21.67° C | 80% | 1018.1 hPa | - | - | - | - |
| 1787750321 | 21.67° C | 80% | 1018.5 hPa | - | - | - | - |
| 1787749421 | 21.11° C | 80% | 1018.4 hPa | - | - | - | - |
| 1787748520 | 22.22° C | 80% | 1018.6 hPa | - | - | - | - |
| 1787747620 | 21.67° C | 80% | 1018.5 hPa | - | - | - | - |
| 1787746720 | 21.11° C | 80% | 1018.4 hPa | - | - | - | - |
| 1787745820 | 21.67° C | 80% | 1018.4 hPa | - | - | - | - |
| 1787744920 | 21.11° C | 80% | 1018.2 hPa | - | - | - | - |
| 1787744020 | 21.67° C | 80% | 1018.5 hPa | - | - | - | - |
| 1787743120 | 20.56° C | 80% | 1018.5 hPa | - | - | - | - |
| 1787742219 | 20.56° C | 80% | 1018.4 hPa | - | - | - | - |
| 1787741319 | 20.56° C | 80% | 1018.5 hPa | - | - | - | - |
| 1787740420 | 20.56° C | 80% | 1018.6 hPa | - | - | - | - |
| 1787739519 | 19.44° C | 80% | 1018.5 hPa | - | - | - | - |
| 1787738619 | 19.44° C | 80% | 1018.5 hPa | - | - | - | - |
| 1787737719 | 18.89° C | 80% | 1018.4 hPa | - | - | - | - |
* Rain since midnight (hover to see other rain measurements)
** Current wind speed in m/s (hover to see current wind gust speed)